CSG-2

Last updated on Mon Jul 07 2025 00:02:29 GMT+0000 (Coordinated Universal Time)

1 51444U 22008A 25187.56626988 .00000288 00000+0 42707-4 0 9994 2 51444 97.8881 11.1799 0001517 90.2422 269.8965 14.82154084185390
UTC large
Height (km)
Speed (km/s)
/
Latitude / Longitude
Inclination (degrees)
Orbital Period (minutes)
Azimuth
Elevation
Range (km)
Doppler Factor

Next 0 passes for location: London (51.5072 / 0.1276)

Sorry there are no passes over London.